Terminal Aerodrome Forecast
Issued by NWS Greer, SC

Home | Current Version | Previous Version | Text Only | Print | Product List | Glossary On
Versions: 1 2 3 4 5 6 7 8 9 10 11 12 13 14 15 16 17 18 19 20 21 22 23 24 25 26 27 28 29 30 31 32 33 34 35 36 37 38 39 40 41 42 43 44 45 46
000
FTUS42 KGSP 212300
TAFCLT
TAF
KCLT 212325Z 2200/2224 23007KT P6SM BKN060
     FM220400 30005KT P6SM BKN050
     FM220900 34008KT P6SM SCT060
     FM221400 02008G14KT P6SM SKC
     FM222300 02004KT P6SM FEW250=

USA.gov is the U.S. government's official web portal to all federal, state and local government web resources and services.